TIME,DELAY(SENSOR),PRES,OXYGEN,RAWTEMP,T(OPTODE),TCPHASE,FLUOR,BETA(BETA700),BETA(BETA412),BETA(BETA440),CDOM,C(CSC),ED(ED411.90),ED(ED443.80),ED(ED489.40),ED(ED554.70),LU(LU412.20),LU(LU443.80),LU(LU489.40),LU(LU555.00),COMP,TILTX,TILTY,CHECK
1346191384,5805,889.7399902343750000,170.9539947509765600,369.6173095703125000,11.5269899368286130,37.6701393127441400,52,99,99,79,78,13664,2146956361,2147514861,2147280630,2147496749,2147088420,2146935936,2147693421,2147118354,2953,-2,8,15497
1346194980,5806,1003.9000244140625000,175.3059997558593800,465.5223999023437500,8.5953359603881840,38.9317207336425800,52,104,99,80,79,13649,2146956845,2147515346,2147288822,2147516845,2147089060,2146928813,2147714578,2147118016,932,-2,8,35517
1346198580,5805,1026.1099853515625000,185.7984924316406200,476.4426879882812500,8.2585411071777340,38.4008483886718750,52,102,99,79,80,13644,2146957348,2147517147,2147287908,2147519286,2147091172,2146926528,2147715894,2147121581,3573,-2,8,61283
1346202180,5806,1028.7299804687500000,187.4537963867187500,479.7878112792969000,8.1552295684814450,38.3486785888671900,52,103,100,79,79,13644,2146955904,2147515986,2147288612,2147516370,2147087981,2146928777,2147717668,2147115858,438,-2,8,7653
1346205780,5808,1036.1899414062500000,187.8719024658203000,481.7009887695312500,8.0961112976074220,38.3541603088378900,52,101,100,80,79,13643,2146955712,2147515620,2147292507,2147517156,2147090020,2146927222,2147715602,2147118564,69,-1,8,37375
1346209380,5803,1038.5999755859375000,188.3594055175781200,483.0849914550781000,8.0533323287963870,38.3463516235351560,52,102,100,80,80,13644,2146957275,2147518098,2147292644,2147520164,2147091401,2146931885,2147718994,2147119524,3150,-2,8,47375
1346212980,5806,1039.6400146484375000,188.0525970458984400,483.8340148925781000,8.0301752090454100,38.3797492980957000,52,105,100,80,79,13643,2146957174,2147515812,2147290834,2147516836,2147091995,2146928109,2147718464,2147116141,2910,-2,8,18525
1346216580,5807,1036.2900390625000000,187.0090026855468800,477.4859008789062500,8.2263298034667970,38.3389892578125000,53,100,100,83,79,13643,2146955849,2147512704,2147291794,2147515648,2147089243,2146927232,2147715748,2147119634,2265,-2,8,59706
1346220180,5807,1029.9399414062500000,188.5514984130859400,480.8835144042969000,8.1213760375976560,38.2953605651855500,52,105,100,78,80,13629,2146960969,2147516873,2147290925,2147517430,2147091209,2146922843,2147715318,2147119579,3094,-2,8,52049
1346223780,5805,1029.4699707031250000,188.5630035400390600,481.4012145996094000,8.1053771972656250,38.3043098449707000,54,103,99,79,79,13636,2146957174,2147515474,2147292324,2147519360,2147090066,2146927113,2147715940,2147116736,556,-1,8,60668
1346227380,5806,1033.6099853515625000,188.5090942382812500,483.2543945312500000,8.0480957031250000,38.3396987915039060,52,104,98,79,79,13642,2146955629,2147516900,2147292278,2147520950,2147091876,2146933129,2147717769,2147120576,188,-1,8,12432
1346230980,5806,1033.5600585937500000,187.6394958496093800,482.9953918457031000,8.0561008453369140,38.3916893005371100,52,102,99,79,81,13642,2146953526,2147519213,2147290834,2147518802,2147090742,2146926125,2147721481,2147118701,273,-1,8,52685
1346234580,5805,1033.9000244140625000,188.0148925781250000,482.7662963867187500,8.0631847381591800,38.3629112243652340,52,103,99,78,80,13635,2146954404,2147515968,2147293120,2147515858,2147091666,2146931346,2147717787,2147119332,324,-2,8,14543
1346238180,5808,1021.1400146484375000,182.3549041748047000,472.4440917968750000,8.3819446563720700,38.5639801025390600,53,103,101,79,79,13635,2146954368,2147515181,2147291318,2147516233,2147091803,2146920996,2147714587,2147117312,3152,-2,8,54706
1346241780,5805,1016.9000244140625000,180.9187927246093800,472.7030944824219000,8.3739538192749020,38.6655006408691400,52,104,100,79,80,13638,2146958893,2147520100,2147292068,2147517677,2147091419,2146922660,2147711232,2147117202,3366,-2,8,63859
1346245380,5806,1025.1099853515625000,179.5955047607422000,468.9121093750000000,8.4908685684204100,38.6919593811035160,52,105,99,78,79,13630,2146954166,2147515529,2147293805,2147517028,2147091437,2146927936,2147716918,2147117421,3195,-2,8,5166
1346248980,5807,1020.0399780273438000,179.8094024658203000,470.8179016113281000,8.4321041107177730,38.7086791992187500,53,106,99,79,80,13634,2146953316,2147516726,2147291904,2147516534,2147091968,2146924928,2147715090,2147117357,87,-2,8,49607
1346252580,5809,1014.6099853515625000,180.4904937744140600,471.9182128906250000,8.3981666564941400,38.6817207336425800,52,102,99,78,80,13631,2146956992,2147517888,2147294765,2147517275,2147088950,2146928676,2147712475,2147116416,81,-2,8,57956
1346256180,5806,1019.7600097656250000,181.3569030761718800,472.7849121093750000,8.3714303970336910,38.6368598937988300,52,102,99,79,79,13631,2146952073,2147515254,2147294080,2147516672,2147089243,2146920685,2147714459,2147116352,10,-2,8,47120
1346259780,5807,1018.9600219726562000,180.1145019531250000,472.9822998046875000,8.3653402328491210,38.7248497009277340,54,101,100,78,80,13631,2146957769,2147512420,2147293485,2147515830,2147089673,2146925156,2147713901,2147119414,703,-2,8,48890
1346263380,5805,1014.8800048828125000,182.8706054687500000,473.3316040039062500,8.3545637130737300,38.5444793701171900,52,103,99,78,80,13626,2146958345,2147519533,2147289600,2147517357,2147091364,2146929764,2147713517,2147118701,2926,-2,8,59487
1346266980,5808,1014.3599853515625000,183.5856018066406200,474.6874084472656000,8.3127250671386720,38.5190696716308600,52,104,99,78,79,13629,2146954715,2147516763,2147291382,2147518875,2147086793,2146928457,2147711341,2147118537,148,-2,8,54402
1346270580,5808,1019.8300170898438000,182.8403015136718800,474.2326965332031000,8.3267555236816400,38.5611610412597660,53,103,97,93,80,13629,2146958930,2147516269,2147290989,2147518592,2147090642,2146921892,2147712804,2147121069,2,-1,8,60299
1346274180,5806,1019.5599975585938000,183.0216979980468800,473.8291931152344000,8.3392076492309570,38.5425605773925800,52,108,99,79,79,13629,2146955675,2147516973,2147292982,2147519990,2147092214,2146921572,2147712054,2147117366,3467,-2,8,2425
1346277780,5808,1019.9299926757812000,183.0408020019531200,474.1105957031250000,8.3305253982543950,38.5460395812988300,53,105,100,79,80,13625,2146955812,2147518637,2147291904,2147513700,2147090422,2146929161,2147712448,2147117065,76,-2,8,4705
1346281380,5805,1021.5300292968750000,182.5213928222656200,474.0179138183594000,8.3333854675292970,38.5793113708496100,53,144,98,78,79,13625,2146957357,2147514669,2147289874,2147516388,2147090221,2146923858,2147711542,2147115730,3422,-2,8,7802
1346284980,5805,1023.0000000000000000,182.2769927978515600,472.5802001953125000,8.3777456283569340,38.5707206726074200,53,102,99,79,80,13620,2146956553,2147517376,2147291126,2147516525,2147087963,2146919862,2147712082,2147116077,870,-2,8,62811
1346288580,5808,1020.8099975585938000,182.8695983886718800,473.6223144531250000,8.3455944061279300,38.5492782592773440,52,107,99,79,79,13625,2146956096,2147521517,2147291629,2147513737,2147091090,2146923245,2147709531,2147119012,944,-2,8,6813
1346292180,5809,1022.8800048828125000,183.3202056884765600,474.1966857910156000,8.3278656005859380,38.5280303955078100,53,105,99,78,80,13616,2146957440,2147514788,2147294546,2147516096,2147089106,2146922550,2147713764,2147115364,23,-1,8,8942
1346295780,5803,1019.7000122070312000,180.9848022460937500,473.9157104492187500,8.3365392684936520,38.6818809509277340,53,103,99,80,80,13621,2146954075,2147514706,2147290386,2147515236,2147088923,2146928384,2147713334,2147118537,3482,-2,8,63774
1346299380,5805,1017.7899780273438000,181.0585937500000000,474.4802856445312500,8.3191156387329100,38.6857910156250000,52,104,100,81,80,13619,2146958052,2147516644,2147291446,2147518573,2147090788,2146924416,2147711734,2147119003,3305,-2,8,55858
1346302980,5806,1019.8499755859375000,181.5608978271484400,474.7619018554687500,8.3104238510131840,38.6573600769043000,52,104,100,79,80,13619,2146958582,2147517833,2147291968,2147515520,2147092507,2146923501,2147714788,2147120036,429,-1,8,34631
1346306580,5805,1019.3400268554688000,182.7104034423828000,474.6607971191406000,8.3135452270507810,38.5774917602539060,53,103,99,79,80,13609,2146957028,2147518445,2147292608,2147515702,2147089590,2146921362,2147712301,2147116498,379,-1,8,60354
1346310180,5807,1022.4400024414062000,182.8247985839843800,474.3916931152344000,8.3218507766723630,38.5653991699218750,53,104,99,79,81,13608,2146956224,2147519890,2147291693,2147517238,2147091236,2146922532,2147712548,2147116525,678,-2,8,26255
1346313780,5808,1019.5999755859375000,182.6157989501953000,474.8970031738281000,8.3062572479248050,38.5874900817871100,53,104,102,78,79,13610,2146956708,2147516854,2147292699,2147518162,2147091410,2146928164,2147706688,2147115712,621,-1,8,63223
1346317380,5807,1021.4600219726562000,181.9851989746093800,474.6286010742187500,8.3145399093627930,38.6258010864257800,52,111,100,78,79,13607,2146957394,2147514413,2147293101,2147515099,2147088859,2146926701,2147715702,2147116873,990,-1,8,55165
1346320980,5808,1013.0599975585938000,182.3610992431640600,475.4949951171875000,8.2877960205078120,38.6147994995117200,53,102,99,79,80,13607,2146958884,2147514258,2147294217,2147517056,2147091190,2146921609,2147714486,2147118253,813,-2,8,26957
1346324580,5805,1020.5300292968750000,184.5825958251953000,474.9368896484375000,8.3050241470336910,38.4559593200683600,52,104,98,78,79,13603,2146953645,2147513782,2147292745,2147515602,2147089709,2146924022,2147715584,2147117248,2676,-2,8,12552
1346328180,5806,1017.5100097656250000,185.5245971679687500,476.5108947753906000,8.2564373016357420,38.4205093383789060,52,103,100,78,79,13606,2146958509,2147514459,2147290752,2147518080,2147091410,2146926445,2147715529,2147113142,2807,-2,8,2155
1346331780,5805,1019.6799926757812000,185.0314025878906200,475.8185119628906000,8.2778110504150390,38.4419212341308600,51,104,102,80,79,13596,2146955702,2147516324,2147292955,2147513856,2147090852,2146924617,2147711789,2147115145,3173,-2,8,13872
1346333755,5807,1021.0499877929688000,185.1116027832031200,475.6541137695312500,8.2828845977783200,38.4338111877441400,52,105,100,79,80,13610,2146957531,2147514468,2147289408,2147514441,2147092187,2146924041,2147717193,2147116004,3193,-2,8,51950
